Flag for Austria Weather past 2 weeks in Leonding, Upper Austria, Austria

Now
37 °F

Chilly.


Feels Like: 37 °F
Forecast: 26 / 54 °F
Wind: 2 mph from North

Location: Linz / Hoersching-Flughafen


UV Index: 3 (Moderate)

Visibility: N/A


Pressure: 30.36 "Hg

Humidity: 65%

Dew point: 27 °F

Location of LeondingLocation

Historic Weather in Leonding

°F

Leonding temperature yesterday

Maximum temperature yesterday: 50 °F (at 4:20 PM)
Minimum temperature yesterday: 37 °F (at 2:50 AM)
Average temperature yesterday: 43 °F

Past Weeks' High & Low Weather Summary

 TemperatureHumidityPressure
High72 °F (Apr 3, 2:50 PM)100% (Apr 3, 6:20 AM)30.36 "Hg (Apr 3, 6:20 AM)
Low36 °F (Apr 15, 5:50 AM)29% (Apr 3, 5:20 PM)29.68 "Hg (Apr 3, 3:20 PM)
Average51 °F73%30.01 "Hg
* Reported Apr 1 10:50 PM — Apr 16 10:50 PM, Leonding, Weather by CustomWeather, © 2014

Note: Actual official high and low records may vary slightly from our data, if they occured in-between our weather recording intervals... More about our weather records

Advertising

Historic Weather Conditions — Data for Previous 24 hours

 ConditionsComfort  
Time TempWeatherWind HumidityBarometerVisibility
10:50 PM
Apr 16
41 °FClear.6 mph57%30.36 "Hg10 mi
10:20 PM41 °FClear.3 mph57%30.36 "Hg10 mi
9:50 PM41 °FPassing clouds.6 mph57%30.33 "HgN/A
9:20 PM43 °FPassing clouds.7 mph53%30.33 "HgN/A
8:50 PM45 °FPassing clouds.5 mph49%30.33 "HgN/A
8:20 PM45 °FPassing clouds.5 mph49%30.30 "HgN/A
7:50 PM46 °FSprinkles. Scattered clouds.8 mph46%30.30 "HgN/A
7:20 PM48 °FSprinkles. Scattered clouds.10 mph40%30.30 "HgN/A
6:50 PM48 °FSprinkles. Scattered clouds.2 mph50%30.30 "HgN/A
6:20 PM48 °FSprinkles. Broken clouds.3 mph46%30.30 "HgN/A
5:50 PM48 °FBroken clouds.5 mph54%30.30 "HgN/A
5:20 PM48 °FThundershowers. Broken clouds.9 mph66%30.30 "HgN/A
4:50 PM48 °FBroken clouds.13 mph71%30.30 "HgN/A
4:20 PM50 °FBroken clouds.13 mph67%30.27 "HgN/A
3:50 PM48 °FBroken clouds.12 mph71%30.30 "HgN/A
3:20 PM46 °FBroken clouds.10 mph71%30.30 "HgN/A
2:50 PM48 °FBroken clouds.13 mph71%30.30 "HgN/A
2:20 PM45 °FScattered clouds.8 mph81%30.30 "HgN/A
1:50 PM45 °FSprinkles. Broken clouds.10 mph71%30.30 "HgN/A
1:20 PM45 °FBroken clouds.9 mph71%30.30 "HgN/A
12:50 PM45 °FPartly sunny.9 mph71%30.33 "HgN/A
12:20 PM45 °FBroken clouds.10 mph71%30.33 "HgN/A
11:50 AM45 °FPartly sunny.10 mph76%30.33 "HgN/A
11:20 AM43 °FBroken clouds.10 mph76%30.33 "HgN/A
10:50 AM41 °FBroken clouds.13 mph81%30.33 "HgN/A
10:20 AM41 °FPartly sunny.9 mph81%30.33 "HgN/A
9:50 AM39 °FPartly sunny.9 mph81%30.33 "HgN/A
9:20 AM39 °FBroken clouds.10 mph81%30.33 "HgN/A
8:50 AM39 °FPartly sunny.10 mph81%30.30 "HgN/A
8:20 AM39 °FPartly sunny.10 mph81%30.30 "HgN/A
7:50 AM39 °FBroken clouds.12 mph81%30.30 "HgN/A
7:20 AM39 °FBroken clouds.10 mph75%30.30 "HgN/A
6:50 AM39 °FPartly cloudy.12 mph75%30.27 "HgN/A
6:20 AM39 °FPartly cloudy.9 mph75%30.27 "HgN/A
5:50 AM39 °FPartly cloudy.7 mph75%30.27 "HgN/A
5:20 AM39 °FPartly cloudy.9 mph75%30.27 "HgN/A
4:50 AM39 °FPassing clouds.10 mph75%30.27 "HgN/A
4:20 AM37 °FPassing clouds.8 mph81%30.24 "HgN/A
3:50 AM37 °FPartly cloudy.9 mph81%30.24 "HgN/A
3:20 AM39 °FOvercast.10 mph75%30.24 "HgN/A
2:50 AM37 °FOvercast.8 mph81%30.24 "HgN/A
1:20 AM39 °FPassing clouds.9 mph75%30.24 "HgN/A
12:50 AM41 °FPassing clouds.10 mph70%30.21 "HgN/A
Weather by CustomWeather, © 2014

See weather overview